Location: Meinert
(37.9441°N, 122.0275°W)
Time: 18:04:49
(UTC+00:00)

CZ-3 Stage 3 - Pass Details

Date: 18 April 2024
Orbit: 461 x 34972 km, 30.5° (Epoch: 22 May)

Event Time Altitude Azimuth Distance (km) Brightness Sun altitude
Rises 11:51:26 0° 272° (W) 10,553 8.8 -18.3°
Enters shadow 11:53:50 - 272° (W) 9,669 8.6 -17.9°
Exits shadow 12:06:07 15° 264° (W) 4,581 6.9 -15.8°
Maximum altitude 12:13:49 38° 204° (SSW) 1,424 4.5 -14.4°
Drops below altitude 10° 12:17:16 10° 133° (SE) 1,904 5.8 -13.8°
Sets 12:18:48 0° 122° (ESE) 2,573 6.7 -13.6°
